• In Germany
  • List of Countries
  • For 7 days
  • Water Temperature
  • Satellite Maps
  • Weather Map
  • Weather Widgets
  • user-avatar
    Login

    Hourly Weather Oruro

    Today, 17 January, Wednesday

    Time Temperature Precipitation Wind Pressure Humidity
    00:00 +7°C° 0 mm 4 mps 475 mmHg 70%
    01:00 +7°C° 0 mm 4 mps 475 mmHg 71%
    02:00 +7°C° 0 mm 3 mps 475 mmHg 73%
    03:00 +7°C° 0 mm 3 mps 475 mmHg 73%
    04:00 +7°C° 0 mm 3 mps 475 mmHg 74%
    05:00 +6°C° 0 mm 2 mps 474 mmHg 75%
    06:00 +7°C° 0 mm 3 mps 475 mmHg 71%
    07:00 +8°C° 0 mm 3 mps 476 mmHg 66%
    08:00 +8°C° 0 mm 3 mps 476 mmHg 62%
    09:00 +10°C° 0 mm 3 mps 477 mmHg 54%
    10:00 +12°C° 0 mm 4 mps 478 mmHg 46%
    11:00 +14°C° 0 mm 4 mps 479 mmHg 38%
    12:00 +15°C° 0 mm 4 mps 480 mmHg 35%
    13:00 +17°C° 0 mm 4 mps 480 mmHg 31%
    14:00 +18°C° 0 mm 4 mps 480 mmHg 27%
    15:00 +18°C° 0 mm 4 mps 479 mmHg 29%
    16:00 +17°C° 0 mm 5 mps 479 mmHg 30%
    17:00 +17°C° 0 mm 5 mps 478 mmHg 31%
    18:00 +15°C° 0 mm 6 mps 478 mmHg 39%
    19:00 +14°C° 0 mm 6 mps 477 mmHg 46%
    20:00 +11°C° 0 mm 7 mps 476 mmHg 53%
    21:00 +10°C° 0 mm 6 mps 476 mmHg 55%
    22:00 +9°C° 0 mm 6 mps 476 mmHg 57%
    23:00 +8°C° 0 mm 5 mps 476 mmHg 58%

    Tomorrow, 18 January, Thursday

    Time Temperature Precipitation Wind Pressure Humidity
    00:00 +8°C° 0 mm 4 mps 476 mmHg 61%
    01:00 +7°C° 0 mm 4 mps 476 mmHg 63%
    02:00 +8°C° 0 mm 3 mps 475 mmHg 66%
    03:00 +7°C° 0 mm 3 mps 475 mmHg 68%
    04:00 +7°C° 0 mm 2 mps 475 mmHg 70%
    05:00 +7°C° 0 mm 2 mps 475 mmHg 72%
    06:00 +7°C° 0 mm 2 mps 475 mmHg 69%
    07:00 +8°C° 0 mm 2 mps 476 mmHg 67%
    08:00 +9°C° 0 mm 2 mps 477 mmHg 65%
    09:00 +10°C° 0 mm 3 mps 478 mmHg 58%
    10:00 +12°C° 0 mm 3 mps 479 mmHg 50%
    11:00 +14°C° 0 mm 4 mps 479 mmHg 43%
    12:00 +14°C° 0.1 mm 4 mps 479 mmHg 41%
    13:00 +15°C° 0.1 mm 4 mps 479 mmHg 38%
    14:00 +16°C° 0.1 mm 5 mps 479 mmHg 35%
    15:00 +16°C° 0.1 mm 5 mps 479 mmHg 37%
    16:00 +15°C° 0.1 mm 6 mps 478 mmHg 38%
    17:00 +15°C° 0.1 mm 6 mps 478 mmHg 40%
    18:00 +14°C° 0 mm 6 mps 477 mmHg 46%
    19:00 +11°C° 0 mm 7 mps 477 mmHg 52%
    20:00 +10°C° 0 mm 7 mps 476 mmHg 58%
    21:00 +9°C° 0 mm 6 mps 476 mmHg 61%
    22:00 +9°C° 0 mm 6 mps 477 mmHg 64%
    23:00 +8°C° 0 mm 5 mps 477 mmHg 66%

    Day after tomorrow, 19 January, Friday

    Time Temperature Precipitation Wind Pressure Humidity
    00:00 +8°C° 0 mm 5 mps 476 mmHg 68%
    01:00 +7°C° 0 mm 4 mps 476 mmHg 69%
    02:00 +8°C° 0 mm 3 mps 476 mmHg 71%
    03:00 +8°C° 0 mm 3 mps 476 mmHg 71%
    04:00 +8°C° 0 mm 3 mps 476 mmHg 71%
    05:00 +8°C° 0 mm 2 mps 476 mmHg 72%
    06:00 +8°C° 0.1 mm 2 mps 476 mmHg 70%
    07:00 +8°C° 0.1 mm 2 mps 477 mmHg 67%
    08:00 +9°C° 0.1 mm 2 mps 477 mmHg 65%
    09:00 +10°C° 0.1 mm 3 mps 478 mmHg 60%
    10:00 +11°C° 0.1 mm 4 mps 479 mmHg 54%
    11:00 +13°C° 0.1 mm 5 mps 480 mmHg 49%
    12:00 +13°C° 0.2 mm 5 mps 479 mmHg 46%
    13:00 +14°C° 0.2 mm 5 mps 479 mmHg 43%
    14:00 +15°C° 0.2 mm 5 mps 479 mmHg 41%
    15:00 +15°C° 0.3 mm 5 mps 479 mmHg 42%
    16:00 +15°C° 0.3 mm 6 mps 478 mmHg 43%
    17:00 +14°C° 0.3 mm 6 mps 478 mmHg 44%
    18:00 +13°C° 0.3 mm 6 mps 477 mmHg 50%
    19:00 +11°C° 0.3 mm 6 mps 477 mmHg 56%
    20:00 +9°C° 0.3 mm 6 mps 476 mmHg 61%
    21:00 +9°C° 0 mm 5 mps 476 mmHg 63%
    22:00 +8°C° 0 mm 5 mps 476 mmHg 65%
    23:00 +8°C° 0 mm 4 mps 476 mmHg 67%

    20 January, Saturday

    Time Temperature Precipitation Wind Pressure Humidity
    00:00 +7°C° 0 mm 4 mps 476 mmHg 68%
    01:00 +7°C° 0 mm 4 mps 475 mmHg 70%
    02:00 +7°C° 0 mm 4 mps 475 mmHg 72%
    03:00 +7°C° 0 mm 3 mps 475 mmHg 73%
    04:00 +7°C° 0 mm 3 mps 475 mmHg 74%
    05:00 +7°C° 0 mm 3 mps 474 mmHg 75%
    06:00 +7°C° 0 mm 3 mps 475 mmHg 72%
    07:00 +8°C° 0 mm 3 mps 476 mmHg 70%
    08:00 +8°C° 0 mm 3 mps 476 mmHg 67%
    09:00 +10°C° 0 mm 4 mps 477 mmHg 60%
    10:00 +11°C° 0 mm 4 mps 478 mmHg 53%
    11:00 +13°C° 0 mm 4 mps 479 mmHg 46%
    12:00 +14°C° 0.1 mm 5 mps 479 mmHg 44%
    13:00 +14°C° 0.1 mm 5 mps 478 mmHg 42%
    14:00 +15°C° 0.1 mm 5 mps 478 mmHg 40%
    15:00 +15°C° 0.2 mm 5 mps 478 mmHg 41%
    16:00 +15°C° 0.2 mm 6 mps 477 mmHg 42%
    17:00 +14°C° 0.2 mm 6 mps 477 mmHg 43%
    18:00 +13°C° 0.4 mm 5 mps 476 mmHg 49%
    19:00 +12°C° 0.4 mm 4 mps 476 mmHg 54%
    20:00 +10°C° 0.4 mm 3 mps 475 mmHg 60%
    21:00 +10°C° 0.2 mm 3 mps 475 mmHg 61%
    22:00 +9°C° 0.2 mm 3 mps 475 mmHg 63%
    23:00 +9°C° 0.2 mm 3 mps 475 mmHg 64%

    21 January, Sunday

    Time Temperature Precipitation Wind Pressure Humidity
    00:00 +8°C° 0.2 mm 3 mps 475 mmHg 65%
    01:00 +8°C° 0.2 mm 3 mps 474 mmHg 67%
    02:00 +7°C° 0.2 mm 3 mps 474 mmHg 68%
    03:00 +7°C° 0.2 mm 3 mps 474 mmHg 69%
    04:00 +7°C° 0.2 mm 3 mps 474 mmHg 70%
    05:00 +7°C° 0.2 mm 3 mps 473 mmHg 71%
    06:00 +7°C° 0.1 mm 3 mps 474 mmHg 69%
    07:00 +7°C° 0.1 mm 4 mps 475 mmHg 66%
    08:00 +7°C° 0.1 mm 4 mps 475 mmHg 64%
    09:00 +10°C° 0 mm 4 mps 476 mmHg 57%
    10:00 +11°C° 0 mm 4 mps 477 mmHg 50%
    11:00 +13°C° 0 mm 5 mps 478 mmHg 43%
    12:00 +14°C° 0 mm 5 mps 478 mmHg 40%
    13:00 +15°C° 0 mm 5 mps 477 mmHg 38%
    14:00 +16°C° 0 mm 5 mps 477 mmHg 35%
    15:00 +15°C° 0.1 mm 4 mps 477 mmHg 37%
    16:00 +15°C° 0.1 mm 4 mps 476 mmHg 38%
    17:00 +15°C° 0.1 mm 4 mps 476 mmHg 40%
    18:00 +14°C° 0 mm 4 mps 476 mmHg 46%
    19:00 +13°C° 0 mm 3 mps 475 mmHg 51%
    20:00 +11°C° 0 mm 3 mps 475 mmHg 57%
    21:00 +11°C° 0 mm 3 mps 475 mmHg 61%
    22:00 +10°C° 0 mm 3 mps 475 mmHg 64%
    23:00 +9°C° 0 mm 3 mps 474 mmHg 68%

    22 January, Monday

    Time Temperature Precipitation Wind Pressure Humidity
    00:00 +9°C° 0 mm 3 mps 474 mmHg 70%
    01:00 +8°C° 0 mm 3 mps 474 mmHg 71%
    02:00 +8°C° 0 mm 3 mps 473 mmHg 73%
    03:00 +7°C° 0 mm 2 mps 473 mmHg 73%
    04:00 +7°C° 0 mm 2 mps 473 mmHg 74%
    05:00 +7°C° 0 mm 2 mps 472 mmHg 75%
    06:00 +8°C° 0 mm 3 mps 473 mmHg 70%
    07:00 +8°C° 0 mm 3 mps 474 mmHg 66%
    08:00 +9°C° 0 mm 3 mps 475 mmHg 61%
    09:00 +11°C° 0 mm 4 mps 476 mmHg 54%
    10:00 +13°C° 0 mm 4 mps 477 mmHg 46%
    11:00 +15°C° 0 mm 5 mps 478 mmHg 38%
    12:00 +16°C° 0 mm 5 mps 478 mmHg 36%
    13:00 +16°C° 0 mm 6 mps 478 mmHg 34%
    14:00 +17°C° 0 mm 6 mps 478 mmHg 32%
    15:00 +17°C° 0 mm 6 mps 477 mmHg 33%
    16:00 +17°C° 0 mm 6 mps 477 mmHg 35%
    17:00 +16°C° 0 mm 6 mps 476 mmHg 37%
    18:00 +15°C° 0 mm 6 mps 475 mmHg 42%
    19:00 +13°C° 0 mm 5 mps 475 mmHg 48%
    20:00 +12°C° 0 mm 5 mps 474 mmHg 53%
    21:00 +11°C° 0 mm 4 mps 474 mmHg 55%
    22:00 +10°C° 0 mm 4 mps 474 mmHg 57%
    23:00 +8°C° 0 mm 4 mps 474 mmHg 60%
    Show more